Tracking 30923 objects as of 1-Jul-2025
HD Live streaming from Space Station
objects crossing your sky now

STARLINK-2039

Track STARLINK-2039 now!
10-day predictions
STARLINK-2039 is classified as:


NORAD ID: 47655
Int'l Code: 2021-012AM
Perigee: 553.4 km
Apogee: 555.4 km
Inclination: 53.1 °
Period: 95.6 minutes
Semi major axis: 6925 km
RCS: Unknown
Launch date: February 16, 2021
Source: United States (US)
Launch site: AIR FORCE EASTERN TEST RANGE (AFETR)
Your satellite tracking list
Your tracking list is empty




NASA's NSSDC Master Catalog

Two Line Element Set (TLE):
1 47655U 21012AM  25181.23055205  .00000668  00000-0  63769-4 0  9997
2 47655  53.0549 124.9507 0001467  92.6957 267.4200 15.06392103241939
Source of the keplerian elements: AFSPC